Starlink 31458

operational
NORAD ID: 59501 Int'l Des: 2024-071 Owner: SPXS Country: US Constellation: starlink
LEOCIRCULAR

Starlink 31458について

説明を読み込み中...

リアルタイム位置

3D地球を読み込み中...

次回通過

高度履歴

Altitude vs Time

uPlot chart will show altitude changes over time

軌道要素

1 59501U 24071T 25259.01873387 .00003018 00000-0 11910-3 0 9991
2 59501 43.0031 246.0467 0001043 280.1103 79.9631 15.27591989 81498
Epoch: Sep 16, 2025 • Age: 14 hours

現在のステータス

高度 486.5 km
速度 7.63 km/s
衛星直下点 41.69°N, 95°E
打ち上げ日 Apr 13, 2024
運用期間 1.4 years
タイプ internet

技術仕様

分類 Payload
質量 730.00 kg
乾燥質量 700.00 kg
総質量 730.00 kg
長さ 0.30 m
直径 4.10 m
スパン 29.00 m
形状 Box + pan
製造者 SPXS
バスタイプ Starlink V2M
フェーズステータス In Orbit
所有者/国 SPXS/US

大規模コンステレーション

Loading constellations...